DECAYED

FENGYUN 1C DEB, 31848 (Decayed)

Orbit data source: Space-Track

FENGYUN 1C DEB, 31848 was space debris in SSO originally from a launch on Mon, 10 May 1999 UTC launched from the Taiyaun Space Center, China (TSC). Fengyun 1C debris stems from the Chinese weather satellite Fengyun-1C, which was intentionally destroyed by a Chinese anti-satellite missile in 2007. This event dramatically increased the amount of space debris, with thousands of trackable fragments posing hazards to satellites and human spaceflight. The Fengyun 1C debris cloud has become a focal point in discussions about space sustainability and the need for international regulations to prevent the creation of new debris.

Not visible in the next 10 days
Identifier
31848, 1999-025CJN
Orbit
Decayed
Country
Flag of CNCN / PRC
Related business
Manufacturer
Unknown
Mission
Decayed spacecraft
Bus & Motor
Unknown
Mass
Unknown
Launch date (UTC)
1999-05-10 (27 years ago)
Launch vehicle
Unknown
Launch site
Taiyaun Space Center, China (TSC)
Object type
Payload
Rocket body
Debris
Shape & HBR
Unknown shape, 0.1 m
Radar Cross Section
Medium (>0.1 m² and <1 m²)

Expand to show TLE details & history
Last TLE update: 1 year ago

TLE from 1 year ago
0 FENGYUN 1C DEB
1 31848U 99025CJN 25084.64731383  .03738800  24644-1  82178-2 0  9991
2 31848  96.6773  52.6466 0020108 183.8692 176.2437 16.02244882952688
Epoch: 2025-03-25T15:32Z
TLE epoch observation values (Epoch: 2025-03-25T15:32:07.914Z)
Latitude
-0.00009°
Longitude
-3.73269°
Altitude
284.764 km
Speed
7.729 km/s
True Right ascension
03h 30m 35s
True Declination
0° 00' 00"
Sunlit
Object was in daylight at epoch
Visualization orbit readout
Latitude
Unknown
Longitude
Unknown
Altitude
Unknown
Speed
Unknown
Apparent Right ascension
Unknown
Apparent Declination
Unknown
Sunlit
N/A
Visualization observer readout
Local Sidereal Time
14:22:23
Azimuth
Unknown
Elevation
Unknown
Doppler factor
Unknown
Orbital elements
Apogee altitude
278.388 km
Perigee altitude
251.672 km
Semi-major axis
6,643.167 km
Eccentricity
0.00201
Inclination
96.6773°
RAAN
52.6466°
Arg. of periapsis
183.8692°
True anomaly
176.25876°
Mean anomaly
176.2437°
Eccentric anomaly
176.25123°
Mean motion
4.00849 °/min
Orbital period
89.81 mins
BSTAR
0.0082178
Loading maneuver chart data...
Computing Atmospheric mass density...
Loading historical data...
Loading historical data...
Loading historical data...
Loading historical data...
Loading historical data...
Loading historical data...
Loading historical data...

Documentation

Showing up to 5 results
|